TEMPSAT 2

导读

TEMPSAT 2(临时卫星2号,又称NRL-PL 157C)是美国海军研究实验室研发的校准卫星,1969年9月30日于范登堡空军基地,由雷神SLV2G阿金纳D运载火箭发射升空,国际卫星标识符为1969-082H,NORAD编号4168。卫星运行在920km×895km、倾角70°的近地轨道,属于临时卫星系列,主要承担在轨校准服务任务。

基本信息
目录编号:
4168
目录名称:
TEMPSAT 2
国际标识:
1969-082H
轨道中心:
EARTH
卫星名称:
TEMPSAT 2
卫星全名:
--
卫星状态:
在轨 (已飞行20794 天)
发射日期:
1969-09-30 UTC
国别 :
美国 (US)
星等 :
--
轨道信息
数据来源 国际轨道数据
星历时间: 2026-09-05T12:09:57+0800
5小时前
查看轨道信息
半长轴: 7285.734km
偏心率: 0.0019173
轨道倾角: 70.013°
近地点辐角 14.005°
升交点赤经 287.116°
平近点角 346.158°
近地点: 893.628km
远地点: 921.566km
周期: 103.150分钟
每日圈数: 13.960238
详细信息
使用方式:
暂无
2D轨道图
3D轨道图
轨道高度分析图
轨道倾角分析图
轨道综合分析图
查看轨道综合分析图